Terminal Aerodrome Forecast
Issued by NWS

Home | Current Version | Previous Version | Graphics & Text | Print | Product List | Glossary On
Versions: 1 2 3 4 5 6 7 8 9 10 11 12 13 14 15 16 17 18 19
000
FTUS43 KTOP 190200 AAA
TAFFOE
TAF AMD
KFOE 190244Z 1903/1924 09008KT P6SM SCT015
     FM190900 12005KT 4SM BR BKN007
      TEMPO 1910/1913 1 1/2SM BR OVC007
     FM191500 17009KT P6SM BKN020
     FM191900 18011KT P6SM SCT050=

USA.gov is the U.S. government's official web portal to all federal, state and local government web resources and services.